Weather History for Tampa Knight Airport, FL

Change the Weather History Date:

Tuesday, March 5, 2013

  Actual Average (KTPA) Record (KTPA)
Temperature  
Mean Temperature 58 °F 66 °F  
Max Temperature 71 °F 75 °F 88 °F (1961)
Min Temperature 44 °F 57 °F 32 °F (1893)
Degree Days  
Heating Degree Days 8 3  
Month to date heating degree days 15  
Since 1 July heating degree days 486  
Cooling Degree Days 0 3  
Month to date cooling degree days 15  
Year to date cooling degree days 128  
Growing Degree Days 8 (Base 50)    
Moisture  
Dew Point 49 °F    
Average Humidity 68    
Maximum Humidity 94    
Minimum Humidity 46    
Precipitation  
Precipitation 0.00 in 0.10 in 1.40 in (1988)
Month to date precipitation 0.47  
Year to date precipitation 5.51  
Sea Level Pressure  
Sea Level Pressure 30.14 in    
Wind  
Wind Speed 7 mph (South)    
Max Wind Speed 15 mph    
Max Gust Speed 20 mph    
Visibility 10 miles    
Events      
T = Trace of Precipitation, MM = Missing Value Source: NWS Daily Summary

Daily Weather History Graph

Daily Weather History Graph

Search for Another Location

Airport:

Trip Planner

Search our weather history database for the weather conditions in past years. The results will help you decide how hot, cold, wet, or windy it might be!

Date:

Astronomy

Mar. 05, 2013 Rise Set
Actual Time 6:49 AM EST 6:32 PM EST
Civil Twilight 6:26 AM EST 6:56 PM EST
Nautical Twilight 5:59 AM EST 7:23 PM EST
Astronomical Twilight 5:32 AM EST 7:50 PM EST
Moon 1:39 AM EST (3/5) 12:32 PM EST (3/5)
Length of Visible Light 12h 29m
Length of Day
11h 42m
Last Quarter, 41% of the Moon is Illuminated
Mar 5
Last Quarter
Mar 11
New
Mar 19
First Quarter
Mar 27
Full
Apr 3
Last Quarter

Hourly Weather History & Observations

Time (EST) Temp. Windchill Dew Point Humidity Pressure Visibility Wind Dir Wind Speed Gust Speed Precip Events Conditions
12:35 AM 46.4 °F 43.5 °F 33.8 °F 62% 30.17 in 10.0 mi East 5.8 mph - N/A   Clear
12:55 AM 46.4 °F 45.2 °F 33.8 °F 62% 30.16 in 10.0 mi ENE 3.5 mph - N/A   Clear
1:35 AM 44.6 °F - 33.8 °F 66% 30.16 in 10.0 mi Calm Calm - N/A   Clear
1:55 AM 46.4 °F - 33.8 °F 62% 30.15 in 10.0 mi Calm Calm - N/A   Clear
2:15 AM 46.4 °F - 33.8 °F 62% 30.15 in 10.0 mi Calm Calm - N/A   Clear
2:35 AM 44.6 °F - 35.6 °F 71% 30.16 in 10.0 mi Calm Calm - N/A   Clear
2:55 AM 50.0 °F - 39.2 °F 66% 30.16 in 10.0 mi SSE 8.1 mph - N/A   Clear
3:15 AM 50.0 °F - 41.0 °F 71% 30.15 in 10.0 mi South 9.2 mph - N/A   Clear
3:55 AM 50.0 °F - 41.0 °F 71% 30.14 in 10.0 mi South 8.1 mph - N/A   Clear
4:15 AM 51.8 °F - 42.8 °F 71% 30.14 in 10.0 mi South 8.1 mph - N/A   Clear
4:35 AM 51.8 °F - 42.8 °F 71% 30.15 in 10.0 mi SSE 8.1 mph - N/A   Clear
4:55 AM 50.0 °F - 42.8 °F 76% 30.15 in 10.0 mi SSE 10.4 mph - N/A   Clear
5:15 AM 50.0 °F - 41.0 °F 71% 30.15 in 10.0 mi SSE 10.4 mph - N/A   Clear
5:35 AM 50.0 °F - 41.0 °F 71% 30.15 in 10.0 mi SSE 10.4 mph - N/A   Clear
5:55 AM 50.0 °F - 41.0 °F 71% 30.16 in 10.0 mi SSE 9.2 mph - N/A   Clear
6:15 AM 50.0 °F - 41.0 °F 71% 30.16 in 10.0 mi SSE 8.1 mph - N/A   Clear
6:35 AM 50.0 °F - 41.0 °F 71% 30.17 in 10.0 mi SSE 5.8 mph - N/A   Clear
6:55 AM 50.0 °F - 41.0 °F 71% 30.18 in 10.0 mi SSE 5.8 mph - N/A   Clear
7:15 AM 51.8 °F - 41.0 °F 67% 30.18 in 10.0 mi SSE 5.8 mph - N/A   Clear
7:35 AM 51.8 °F - 41.0 °F 67% 30.19 in 10.0 mi SSE 5.8 mph - N/A   Clear
7:55 AM 51.8 °F - 41.0 °F 67% 30.19 in 10.0 mi SSE 6.9 mph - N/A   Clear
8:15 AM 53.6 °F - 41.0 °F 62% 30.19 in 10.0 mi SSE 3.5 mph - N/A   Clear
8:35 AM 55.4 °F - 41.0 °F 58% 30.19 in 10.0 mi SSE 4.6 mph - N/A   Clear
8:55 AM 55.4 °F - 42.8 °F 63% 30.20 in 10.0 mi SSE 4.6 mph - N/A   Clear
9:15 AM 57.2 °F - 42.8 °F 59% 30.19 in 10.0 mi SSE 3.5 mph - N/A   Clear
9:35 AM 59.0 °F - 42.8 °F 55% 30.19 in 10.0 mi SSE 3.5 mph - N/A   Clear
9:55 AM 60.8 °F - 44.6 °F 55% 30.20 in 10.0 mi SSE 3.5 mph - N/A   Clear
10:15 AM 60.8 °F - 46.4 °F 59% 30.20 in 10.0 mi South 4.6 mph - N/A   Clear
10:35 AM 62.6 °F - 46.4 °F 55% 30.20 in 10.0 mi SSE 3.5 mph - N/A   Clear
10:55 AM 62.6 °F - 50.0 °F 63% 30.20 in 10.0 mi SSE 6.9 mph - N/A   Clear
11:15 AM 64.4 °F - 50.0 °F 59% 30.19 in 10.0 mi South 5.8 mph - N/A   Clear
11:35 AM 64.4 °F - 51.8 °F 64% 30.19 in 10.0 mi South 5.8 mph - N/A   Scattered Clouds
11:55 AM 68.0 °F - 51.8 °F 56% 30.19 in 10.0 mi SW 10.4 mph - N/A   Scattered Clouds
12:15 PM 68.0 °F - 51.8 °F 56% 30.18 in 10.0 mi SW 10.4 mph 19.6 mph N/A   Clear
12:35 PM 69.8 °F - 51.8 °F 53% 30.17 in 10.0 mi WSW 9.2 mph - N/A   Clear
1:15 PM 69.8 °F - 51.8 °F 53% 30.15 in 10.0 mi SSW 9.2 mph - N/A   Clear
1:35 PM 71.6 °F - 50.0 °F 46% 30.14 in 10.0 mi North - - N/A   Clear
1:55 PM 69.8 °F - 50.0 °F 49% 30.13 in 10.0 mi SSW 9.2 mph - N/A   Clear
2:15 PM 71.6 °F - 51.8 °F 50% 30.12 in 10.0 mi SW 11.5 mph - N/A   Clear
2:35 PM 71.6 °F - 51.8 °F 50% 30.12 in 10.0 mi SSW 10.4 mph - N/A   Clear
2:55 PM 69.8 °F - 51.8 °F 53% 30.11 in 10.0 mi SSW 12.7 mph - N/A   Clear
3:15 PM 69.8 °F - 51.8 °F 53% 30.12 in 10.0 mi SSW 11.5 mph - N/A   Clear
3:35 PM 69.8 °F - 53.6 °F 56% 30.12 in 10.0 mi SSW 9.2 mph - N/A   Clear
3:55 PM 69.8 °F - 51.8 °F 53% 30.12 in 10.0 mi SSW 10.4 mph - N/A   Clear
4:15 PM 69.8 °F - 53.6 °F 56% 30.12 in 10.0 mi North - - N/A   Clear
4:35 PM 69.8 °F - 53.6 °F 56% 30.11 in 10.0 mi SSW 11.5 mph - N/A   Clear
4:55 PM 68.0 °F - 53.6 °F 60% 30.11 in 10.0 mi SSW 11.5 mph - N/A   Clear
5:15 PM 68.0 °F - 53.6 °F 60% 30.11 in 10.0 mi SSW 10.4 mph - N/A   Clear
5:35 PM 66.2 °F - 55.4 °F 68% 30.11 in 10.0 mi SW 10.4 mph - N/A   Clear
6:15 PM 64.4 °F - 55.4 °F 73% 30.11 in 10.0 mi SSW 9.2 mph - N/A   Clear
6:35 PM 62.6 °F - 55.4 °F 77% 30.10 in 10.0 mi SSW 8.1 mph - N/A   Clear
6:55 PM 62.6 °F - 55.4 °F 77% 30.10 in 10.0 mi SSW 8.1 mph - N/A   Clear
7:15 PM 62.6 °F - 55.4 °F 77% 30.09 in 10.0 mi SSW 6.9 mph - N/A   Clear
7:35 PM 60.8 °F - 57.2 °F 88% 30.09 in 10.0 mi SSW 8.1 mph - N/A   Clear
7:55 PM 60.8 °F - 57.2 °F 88% 30.09 in 10.0 mi SSW 8.1 mph - N/A   Clear
8:15 PM 62.6 °F - 57.2 °F 82% 30.09 in 10.0 mi SSW 10.4 mph - N/A   Clear
8:35 PM 62.6 °F - 57.2 °F 82% 30.08 in 10.0 mi South 10.4 mph - N/A   Clear
8:55 PM 62.6 °F - 57.2 °F 82% 30.07 in 10.0 mi South 11.5 mph - N/A   Clear
9:15 PM 62.6 °F - 57.2 °F 82% 30.08 in 10.0 mi SSW 11.5 mph - N/A   Clear
9:35 PM 62.6 °F - 59.0 °F 88% 30.07 in 10.0 mi SSW 11.5 mph - N/A   Clear
9:55 PM 62.6 °F - 59.0 °F 88% 30.07 in 10.0 mi SSW 9.2 mph - N/A   Clear
10:15 PM 62.6 °F - 59.0 °F 88% 30.07 in 10.0 mi SSW 10.4 mph - N/A   Clear
10:35 PM 62.6 °F - 59.0 °F 88% 30.08 in 10.0 mi SSW 10.4 mph - N/A   Mostly Cloudy
10:55 PM 62.6 °F - 59.0 °F 88% 30.07 in 10.0 mi SSW 9.2 mph - N/A   Overcast
11:15 PM 62.6 °F - 59.0 °F 88% 30.07 in 10.0 mi SSW 8.1 mph - N/A   Overcast
11:35 PM 62.6 °F - 60.8 °F 94% 30.06 in 10.0 mi SSW 12.7 mph 17.3 mph N/A   Overcast
11:55 PM 62.6 °F - 59.0 °F 88% 30.06 in 10.0 mi SSW 15.0 mph - N/A   Mostly Cloudy